Location: Vihti�l�
(61.3833°N, 23.0667°E)
Time: 04:41:41
(UTC+00:00)

Meteor 1-27 Rocket - Pass Details

Date: 29 November 2020
Orbit: 830 x 909 km, 81.3° (Epoch: 19 January)

Event Time Altitude Azimuth Distance (km) Brightness Sun altitude
Exits shadow 03:26:16 10° 345° (NNW) 2,541 6.0 -24.7°
Reaches altitude 10° 03:26:20 10° 346° (NNW) 2,520 6.0 -24.7°
Maximum altitude 03:31:58 56° 64° (ENE) 1,045 4.4 -24.1°
Drops below altitude 10° 03:37:41 10° 143° (SE) 2,558 6.7 -23.4°
Sets 03:40:13 0° 147° (SSE) 3,504 7.4 -23.1°
